Radiation Dose at Monitoring Post of Fukushima Daini Nuclear Power Station
Date,Time,MP-1(microSv/h),MP-2(microSv/h),MP-3(microSv/h),MP-4(microSv/h),MP-5(microSv/h),MP-6(microSv/h),MP-7(microSv/h),Wind Direction,Wind Velocity(m/s),Rain
2018/03/29,00:00,0.322,0.204,0.331,0.317,0.303,0.165,0.100,west,2.0,No
2018/03/29,00:10,0.322,0.205,0.332,0.315,0.303,0.165,0.100,west,3.1,No
2018/03/29,00:20,0.323,0.205,0.331,0.314,0.303,0.165,0.099,west-northwest,1.7,No
2018/03/29,00:30,0.320,0.205,0.331,0.317,0.305,0.166,0.100,west,0.8,No
2018/03/29,00:40,0.322,0.205,0.332,0.314,0.302,0.166,0.099,west-southwest,1.1,No
2018/03/29,00:50,0.323,0.204,0.331,0.315,0.303,0.165,0.100,west,2.3,No
2018/03/29,01:00,0.321,0.204,0.330,0.316,0.303,0.166,0.100,west-northwest,3.1,No
2018/03/29,01:10,0.321,0.204,0.330,0.315,0.302,0.166,0.100,west,3.9,No
2018/03/29,01:20,0.323,0.204,0.329,0.315,0.304,0.165,0.100,west,3.3,No
2018/03/29,01:30,0.321,0.205,0.330,0.316,0.302,0.166,0.100,west-northwest,1.9,No
2018/03/29,01:40,0.321,0.205,0.331,0.314,0.304,0.165,0.099,west,2.2,No
2018/03/29,01:50,0.322,0.205,0.329,0.316,0.302,0.166,0.100,west,2.2,No
2018/03/29,02:00,0.322,0.205,0.331,0.316,0.303,0.167,0.099,west-northwest,1.9,No
2018/03/29,02:10,0.321,0.205,0.332,0.316,0.305,0.165,0.099,west,2.7,No
2018/03/29,02:20,0.322,0.205,0.329,0.315,0.303,0.166,0.100,west-northwest,2.9,No
2018/03/29,02:30,0.322,0.204,0.330,0.316,0.302,0.166,0.100,west-northwest,2.0,No
2018/03/29,02:40,0.321,0.204,0.330,0.316,0.301,0.166,0.100,west,1.5,No
2018/03/29,02:50,0.322,0.205,0.330,0.315,0.306,0.166,0.100,west,1.4,No
2018/03/29,03:00,0.323,0.205,0.331,0.316,0.304,0.165,0.100,west,2.6,No
2018/03/29,03:10,0.321,0.204,0.330,0.315,0.304,0.165,0.101,west-northwest,3.0,No
2018/03/29,03:20,0.322,0.204,0.330,0.315,0.304,0.166,0.100,west,3.2,No
2018/03/29,03:30,0.321,0.205,0.330,0.315,0.302,0.165,0.100,west-northwest,3.0,No
2018/03/29,03:40,0.322,0.204,0.331,0.315,0.304,0.166,0.099,west,2.7,No
2018/03/29,03:50,0.322,0.204,0.329,0.315,0.303,0.166,0.099,west,3.3,No
2018/03/29,04:00,0.322,0.204,0.330,0.316,0.304,0.165,0.101,west,3.4,No
2018/03/29,04:10,0.320,0.205,0.331,0.313,0.303,0.165,0.100,west,3.5,No
2018/03/29,04:20,0.322,0.203,0.331,0.316,0.303,0.166,0.098,west,3.8,No
2018/03/29,04:30,0.322,0.205,0.330,0.316,0.304,0.166,0.100,west-northwest,3.7,No
2018/03/29,04:40,0.320,0.205,0.328,0.315,0.302,0.165,0.100,west-northwest,3.7,No
2018/03/29,04:50,0.322,0.204,0.332,0.315,0.304,0.165,0.100,north-northwest,2.4,No
2018/03/29,05:00,0.321,0.204,0.331,0.314,0.303,0.166,0.100,northwest,1.4,No
2018/03/29,05:10,0.320,0.203,0.330,0.315,0.303,0.165,0.100,west-southwest,0.8,No
2018/03/29,05:20,0.322,0.204,0.330,0.315,0.304,0.165,0.100,northwest,0.7,No
2018/03/29,05:30,0.322,0.204,0.330,0.314,0.302,0.165,0.101,north-northwest,1.7,No
2018/03/29,05:40,0.322,0.205,0.332,0.317,0.303,0.166,0.100,west,2.5,No
2018/03/29,05:50,0.322,0.203,0.331,0.314,0.302,0.166,0.099,west-southwest,1.3,No
2018/03/29,06:00,0.321,0.204,0.330,0.316,0.305,0.165,0.100,west,0.8,No
2018/03/29,06:10,0.321,0.204,0.330,0.314,0.303,0.166,0.099,west-southwest,1.9,No
2018/03/29,06:20,0.322,0.203,0.329,0.314,0.305,0.166,0.100,southwest,1.7,No
2018/03/29,06:30,0.320,0.202,0.332,0.316,0.303,0.166,0.100,southwest,1.2,No
2018/03/29,06:40,0.322,0.204,0.330,0.314,0.304,0.166,0.100,south-southwest,0.7,No
2018/03/29,06:50,0.321,0.202,0.330,0.316,0.306,0.165,0.100,south-southwest,1.3,No
2018/03/29,07:00,0.321,0.203,0.332,0.314,0.302,0.166,0.099,southwest,1.5,No
2018/03/29,07:10,0.323,0.204,0.330,0.316,0.303,0.165,0.100,southwest,1.4,No
2018/03/29,07:20,0.321,0.203,0.330,0.313,0.301,0.165,0.100,south,1.0,No
2018/03/29,07:30,0.322,0.204,0.330,0.316,0.305,0.164,0.100,south-southeast,1.8,No
2018/03/29,07:40,0.320,0.204,0.330,0.312,0.302,0.165,0.100,south-southeast,2.2,No
2018/03/29,07:50,0.322,0.205,0.329,0.315,0.304,0.165,0.099,south,2.5,No
2018/03/29,08:00,0.321,0.203,0.332,0.313,0.302,0.164,0.099,south-southwest,4.2,No
2018/03/29,08:10,0.321,0.204,0.329,0.311,0.303,0.165,0.100,south,3.5,No
2018/03/29,08:20,0.321,0.202,0.331,0.313,0.302,0.165,0.099,south,3.6,No
2018/03/29,08:30,0.321,0.202,0.329,0.316,0.302,0.166,0.099,south,4.3,No
2018/03/29,08:40,0.320,0.205,0.331,0.313,0.304,0.165,0.099,south,4.2,No
2018/03/29,08:50,0.319,0.203,0.329,0.311,0.302,0.165,0.100,south,4.2,No
2018/03/29,09:00,0.321,0.202,0.331,0.316,0.304,0.166,0.100,south,5.0,No
2018/03/29,09:10,0.318,0.205,0.328,0.314,0.303,0.164,0.100,south,4.1,No
2018/03/29,09:20,0.323,0.203,0.332,0.313,0.301,0.165,0.100,south-southeast,4.7,No
2018/03/29,09:30,0.320,0.204,0.328,0.311,0.304,0.165,0.099,south-southeast,4.2,No
2018/03/29,09:40,0.320,0.203,0.330,0.316,0.304,0.165,0.099,south-southeast,3.5,No
2018/03/29,09:50,0.323,0.205,0.331,0.317,0.302,0.165,0.101,south-southeast,3.4,No
2018/03/29,10:00,0.319,0.205,0.328,0.314,0.300,0.165,0.100,south-southeast,4.0,No
2018/03/29,10:10,0.319,0.204,0.331,0.313,0.304,0.165,0.099,south-southeast,3.6,No
2018/03/29,10:20,0.318,0.203,0.329,0.312,0.304,0.165,0.100,south-southeast,3.2,No
2018/03/29,10:30,0.321,0.205,0.331,0.314,0.300,0.166,0.100,south-southeast,4.2,No
2018/03/29,10:40,0.322,0.205,0.331,0.317,0.299,0.165,0.100,southeast,4.6,No
2018/03/29,10:50,0.320,0.204,0.328,0.316,0.305,0.164,0.099,south-southeast,4.9,No
2018/03/29,11:00,0.317,0.203,0.331,0.314,0.305,0.166,0.101,south,5.4,No
2018/03/29,11:10,0.319,0.206,0.330,0.314,0.302,0.165,0.100,south,6.0,No
2018/03/29,11:20,0.323,0.205,0.328,0.317,0.301,0.165,0.099,south,7.6,No
2018/03/29,11:30,0.323,0.204,0.327,0.317,0.301,0.164,0.100,south,8.1,No
2018/03/29,11:40,0.320,0.203,0.330,0.314,0.306,0.165,0.100,south,9.5,No
2018/03/29,11:50,0.317,0.206,0.331,0.313,0.305,0.165,0.099,south,10.0,No
2018/03/29,12:00,0.318,0.205,0.330,0.316,0.303,0.165,0.101,south,6.9,No
2018/03/29,12:10,0.322,0.203,0.328,0.316,0.301,0.167,0.100,south,9.0,No
2018/03/29,12:20,0.322,0.203,0.328,0.316,0.301,0.166,0.100,south,9.5,No
2018/03/29,12:30,0.319,0.205,0.332,0.314,0.305,0.165,0.100,south,9.5,No
2018/03/29,12:40,0.318,0.204,0.333,0.314,0.305,0.166,0.100,south,9.2,No
2018/03/29,12:50,0.322,0.204,0.329,0.318,0.302,0.165,0.100,south,11.1,No
2018/03/29,13:00,0.325,0.205,0.328,0.315,0.300,0.166,0.100,south,12.9,No
2018/03/29,13:10,0.321,0.205,0.329,0.315,0.303,0.166,0.100,south,12.3,No
2018/03/29,13:20,0.319,0.203,0.332,0.314,0.306,0.165,0.100,south,12.2,No
2018/03/29,13:30,0.323,0.206,0.329,0.318,0.302,0.166,0.100,south,12.6,No
2018/03/29,13:40,0.323,0.206,0.329,0.317,0.301,0.165,0.100,south,11.5,No
2018/03/29,13:50,0.320,0.202,0.328,0.313,0.302,0.165,0.099,south,10.0,No
2018/03/29,14:00,0.320,0.205,0.331,0.316,0.306,0.165,0.099,south,11.2,No
2018/03/29,14:10,0.324,0.205,0.332,0.318,0.305,0.165,0.099,south,7.2,No
2018/03/29,14:20,0.321,0.205,0.330,0.315,0.302,0.167,0.100,south,10.6,No
2018/03/29,14:30,0.319,0.203,0.329,0.314,0.300,0.165,0.100,south,11.4,No
2018/03/29,14:40,0.321,0.206,0.331,0.318,0.305,0.165,0.100,south,11.4,No
2018/03/29,14:50,0.324,0.204,0.333,0.315,0.305,0.166,0.101,south,11.7,No
2018/03/29,15:00,0.321,0.206,0.329,0.317,0.302,0.165,0.100,south,10.6,No
2018/03/29,15:10,0.322,0.205,0.334,0.317,0.306,0.167,0.100,south,10.3,No
2018/03/29,15:20,0.322,0.206,0.330,0.317,0.303,0.166,0.100,south,8.2,No
2018/03/29,15:30,0.321,0.206,0.333,0.318,0.307,0.165,0.100,south,6.3,No
2018/03/29,15:40,0.324,0.205,0.332,0.316,0.303,0.165,0.100,south,5.4,No
2018/03/29,15:50,0.320,0.204,0.330,0.317,0.305,0.166,0.100,south,7.5,No
2018/03/29,16:00,0.324,0.204,0.332,0.315,0.306,0.165,0.100,south,8.1,No
2018/03/29,16:10,0.322,0.205,0.331,0.319,0.302,0.165,0.100,south,7.4,No
2018/03/29,16:20,0.321,0.204,0.333,0.317,0.304,0.166,0.099,south,6.5,No
2018/03/29,16:30,0.322,0.206,0.330,0.319,0.305,0.165,0.100,south,6.0,No
2018/03/29,16:40,0.320,0.205,0.333,0.315,0.302,0.165,0.100,south,4.5,No
2018/03/29,16:50,0.322,0.206,0.331,0.318,0.306,0.167,0.100,south-southwest,0.6,No
2018/03/29,17:00,0.321,0.206,0.332,0.316,0.304,0.166,0.099,north-northwest,2.1,No
2018/03/29,17:10,0.324,0.205,0.331,0.318,0.306,0.167,0.100,north-northwest,5.0,No
2018/03/29,17:20,0.320,0.205,0.332,0.314,0.304,0.165,0.100,northwest,3.8,No
2018/03/29,17:30,0.323,0.204,0.331,0.318,0.304,0.166,0.100,northwest,2.6,No
2018/03/29,17:40,0.323,0.205,0.332,0.315,0.305,0.165,0.099,west-northwest,3.6,No
2018/03/29,17:50,0.325,0.205,0.331,0.318,0.302,0.166,0.101,northwest,3.3,No
2018/03/29,18:00,0.322,0.205,0.333,0.317,0.304,0.165,0.099,west-northwest,1.8,No
2018/03/29,18:10,0.323,0.205,0.331,0.318,0.301,0.165,0.101,northwest,0.7,No
2018/03/29,18:20,0.323,0.206,0.331,0.318,0.307,0.166,0.101,north-northwest,1.2,No
2018/03/29,18:30,0.322,0.205,0.332,0.317,0.303,0.166,0.100,northwest,2.4,No
2018/03/29,18:40,0.324,0.207,0.330,0.318,0.305,0.166,0.100,west,10.4,No
2018/03/29,18:50,0.321,0.203,0.334,0.317,0.302,0.167,0.100,west,12.3,No
2018/03/29,19:00,0.322,0.206,0.331,0.316,0.304,0.165,0.100,west,8.3,No
2018/03/29,19:10,0.322,0.204,0.333,0.316,0.302,0.167,0.100,west,6.7,No
2018/03/29,19:20,0.322,0.204,0.332,0.318,0.305,0.166,0.100,west,7.7,No
2018/03/29,19:30,0.323,0.206,0.333,0.318,0.303,0.167,0.100,west-northwest,7.7,No
2018/03/29,19:40,0.323,0.206,0.333,0.316,0.305,0.166,0.100,west-northwest,4.6,No
2018/03/29,19:50,0.322,0.205,0.332,0.319,0.303,0.167,0.100,west-northwest,3.0,No
2018/03/29,20:00,0.323,0.205,0.333,0.315,0.306,0.166,0.099,west,6.1,No
2018/03/29,20:10,0.322,0.206,0.332,0.318,0.304,0.166,0.100,west-northwest,2.0,No
2018/03/29,20:20,0.323,0.206,0.333,0.316,0.306,0.166,0.100,west-northwest,0.6,No
2018/03/29,20:30,0.322,0.205,0.331,0.318,0.304,0.166,0.100,north-northwest,0.9,No
2018/03/29,20:40,0.323,0.204,0.333,0.316,0.305,0.166,0.100,-,CALM,No
2018/03/29,20:50,0.320,0.205,0.331,0.319,0.303,0.166,0.100,west,0.6,No
2018/03/29,21:00,0.323,0.206,0.333,0.316,0.305,0.167,0.100,northwest,0.8,No
2018/03/29,21:10,0.321,0.206,0.330,0.319,0.302,0.167,0.100,north-northwest,1.3,No
2018/03/29,21:20,0.323,0.205,0.334,0.316,0.305,0.165,0.100,north-northwest,0.9,No
2018/03/29,21:30,0.323,0.205,0.330,0.318,0.303,0.166,0.100,west-northwest,2.8,No
2018/03/29,21:40,0.323,0.205,0.333,0.315,0.304,0.165,0.100,northwest,3.2,No
2018/03/29,21:50,0.324,0.206,0.332,0.319,0.303,0.165,0.099,west-northwest,3.2,No
2018/03/29,22:00,0.323,0.206,0.332,0.316,0.306,0.166,0.100,west,3.1,No
2018/03/29,22:10,0.323,0.204,0.333,0.318,0.303,0.166,0.100,west-northwest,3.4,No
2018/03/29,22:20,0.322,0.206,0.333,0.316,0.304,0.166,0.100,north-northwest,0.7,No
2018/03/29,22:30,0.324,0.205,0.332,0.316,0.304,0.166,0.100,northwest,1.0,No
2018/03/29,22:40,0.322,0.206,0.332,0.319,0.303,0.167,0.100,west,1.2,No
2018/03/29,22:50,0.324,0.205,0.335,0.317,0.306,0.166,0.100,west-southwest,0.9,No
2018/03/29,23:00,0.322,0.206,0.331,0.318,0.303,0.166,0.100,-,CALM,No
2018/03/29,23:10,0.323,0.205,0.334,0.317,0.306,0.165,0.099,northeast,1.3,No
2018/03/29,23:20,0.323,0.203,0.332,0.318,0.303,0.166,0.099,-,CALM,No
2018/03/29,23:30,0.324,0.205,0.333,0.316,0.307,0.166,0.100,west-northwest,0.7,No
2018/03/29,23:40,0.323,0.205,0.333,0.319,0.304,0.167,0.100,-,CALM,No
2018/03/29,23:50,0.322,0.205,0.331,0.317,0.306,0.165,0.100,west,0.7,No
